Regional Weather Roundup
Issued by NWS

Home | Current Version | Previous Version | Text Only | Print | Product List | Glossary On
Versions: 1 2 3 4 5 6 7 8 9 10 11 12 13 14 15 16 17 18 19 20 21 22 23 24 25 26 27 28 29 30 31 32 33 34 35 36 37 38 39 40 41 42 43 44 45 46 47 48 49 50
000
ASUS44 KFWD 260015
RWRTX
NORTH TEXAS HOURLY WEATHER ROUNDUP
NATIONAL WEATHER SERVICE FORT WORTH TX
700 PM CDT MON SEP 25 2017

NOTE: "FAIR" INDICATES FEW OR NO CLOUDS BELOW 12,000 FEET WITH NO
SIGNIFICANT WEATHER AND/OR OBSTRUCTIONS TO VISIBILITY.

TXZ118-119-260100-
DALLAS/FORT WORTH METROPLEX

CITY           SKY/WX    TMP DP  RH WIND       PRES   REMARKS
DFW AIRPORT    PTCLDY    89  60  37 SE12      29.79S
6HR MIN TEMP:  87; 6HR MAX TEMP:  93;

DALLAS LOVE    PTCLDY    89  62  40 SE17      29.80R
6HR MIN TEMP:  86; 6HR MAX TEMP:  93;

FTW MEACHAM    MOCLDY    89  63  41 SE12      29.80R HX  90
6HR MIN TEMP:  87; 6HR MAX TEMP:  93;

DAL-EXECUTIVE  CLEAR     87  62  43 SE10      29.80R
6HR MIN TEMP:  87; 6HR MAX TEMP:  93;

FTW-ALLIANCE   MOCLDY    87  62  43 SE10      29.80R
6HR MIN TEMP:  87; 6HR MAX TEMP:  92;

FTW-NAS-JRB    PTCLDY    89  62  40 SE9       29.81R
6HR MIN TEMP:  87; 6HR MAX TEMP:  93;

FTW-SPINKS     MOCLDY    86  63  45 SE12      29.82R
ARLINGTON      PTCLDY    87  64  46 SE9       29.81R
6HR MIN TEMP:  86; 6HR MAX TEMP:  92;

GRAND PRAIRIE  CLEAR     88  57  35 SE9       29.82R
ADDISON        PTCLDY    88  61  40 SE12      29.81R
MESQUITE       PTCLDY    88  61  40 SE10      29.82R
LANCASTER      CLEAR     88  63  42 SE9       29.82R
6HR MIN TEMP:  86; 6HR MAX TEMP:  93;

$$

TXZ091>094-102>105-117-120-121-131>134-260100-
NORTH CENTRAL TEXAS

CITY           SKY/WX    TMP DP  RH WIND       PRES   REMARKS
SHRMAN/DENISON MOCLDY    84  64  50 SE6       29.84S
6HR MIN TEMP:  84; 6HR MAX TEMP:  89;

GAINESVILLE    CLOUDY    82  64  53 SE5       29.85S
6HR MIN TEMP:  82; 6HR MAX TEMP:  87;

BOWIE          DRIZZLE   80  67  65 CALM      29.84R
6HR MIN TEMP:  80; 6HR MAX TEMP:  87;

BRIDGEPORT     CLOUDY    83  64  51 CALM      29.84R
6HR MIN TEMP:  83; 6HR MAX TEMP:  88;

DECATUR        CLOUDY    81  64  55 CALM      29.82S
6HR MIN TEMP:  81; 6HR MAX TEMP:  88;

DENTON         MOCLDY    85  63  47 SE8       29.81R
6HR MIN TEMP:  85; 6HR MAX TEMP:  91;

MCKINNEY       CLEAR     85  65  51 SE6       29.82R
6HR MIN TEMP:  85; 6HR MAX TEMP:  90;

BONHAM         CLOUDY    83  64  51 SE7       29.84S
6HR MIN TEMP:  83; 6HR MAX TEMP:  89;

GREENVILLE     CLEAR     88  63  42 SE3       29.84R
ROCKWALL       CLEAR     86  65  48 SE6       29.82S
6HR MIN TEMP:  85; 6HR MAX TEMP:  90;

TERRELL        MOCLDY    88  62  41 SE8       29.82S
6HR MIN TEMP:  87; 6HR MAX TEMP:  92;

WAXAHACHIE     MOCLDY    87  63  44 SE7       29.83R
6HR MIN TEMP:  87; 6HR MAX TEMP:  92;

CLEBURNE       CLOUDY    86  64  48 SE9       29.82S
GRANBURY       CLOUDY    87  62  42 SE5       29.81S
6HR MIN TEMP:  86; 6HR MAX TEMP:  92;

$$

TXZ083>090-098>101-113>116-127>130-139>142-154-155-260100-
WESTERN NORTH TEXAS

CITY           SKY/WX    TMP DP  RH WIND       PRES   REMARKS
WICHITA FALLS  LGT RAIN  73  69  87 SW12      29.86R
6HR MIN TEMP:  73; 6HR MAX TEMP:  85; 6HR PCP:  0.02;

WF-KICKAPOO    RAIN      73  71  92 SW7       29.88R
6HR MIN TEMP:  73; 6HR MAX TEMP:  86; 6HR PCP:  0.07;

VERNON         CLOUDY    75  66  72 SE12      29.84S
6HR MIN TEMP:  72; 6HR MAX TEMP:  85; 6HR PCP:  0.28;

ABILENE        MOCLDY    71  69  93 SE6       29.85S
6HR MIN TEMP:  68; 6HR MAX TEMP:  73; 6HR PCP:  0.86;

ABILENE-DYESS  CLOUDY    73  69  87 E8        29.84R
6HR MIN TEMP:  71; 6HR MAX TEMP:  74; 6HR PCP:  0.13;

GRAHAM         LGT RAIN  71  51  48 CALM      29.86R
6HR MIN TEMP:  70; 6HR MAX TEMP:  86; 6HR PCP:  0.09;

BRECKENRIDGE   LGT RAIN  73  71  95 CALM      29.87R
6HR MIN TEMP:  71; 6HR MAX TEMP:  86; 6HR PCP:  1.28;

CISCO          CLOUDY    72  70  94 N6        29.88S
EASTLAND       CLOUDY    71  70  96 N7        29.86F
6HR MIN TEMP:  70; 6HR MAX TEMP:  89; 6HR PCP:  0.55;

RANGER         CLOUDY    71  70  99 N5        29.86S
6HR MIN TEMP:  64; 6HR MAX TEMP:  97; 6HR PCP:  0.03;

MINERAL WELLS  LGT RAIN  73  70  90 NW10      29.82R FOG
6HR MIN TEMP:  73; 6HR MAX TEMP:  90; 6HR PCP:  0.04;

STEPHENVILLE   CLOUDY    77  66  68 NW12      29.86R
6HR MIN TEMP:  77; 6HR MAX TEMP:  90;

COMANCHE       LGT RAIN  73  73 100 NW7       29.85F
6HR MIN TEMP:  72; 6HR MAX TEMP:  89; 6HR PCP:  0.24;

BROWNWOOD      CLOUDY    72  72 100 NE6       29.85S
COLEMAN        CLOUDY    73  69  89 E6        29.85S
6HR MIN TEMP:  71; 6HR MAX TEMP:  79;

$$

TXZ143>147-156>162-174-175-260100-
CENTRAL TEXAS

CITY           SKY/WX    TMP DP  RH WIND       PRES   REMARKS
WACO           PTCLDY    88  64  44 SE13      29.79R
6HR MIN TEMP:  87; 6HR MAX TEMP:  94;

WACO-TSTC      CLEAR     88  64  45 SE8       29.80R
WACO-MCGREGOR  MOCLDY    87  66  49 SE13      29.80R
6HR MIN TEMP:  87; 6HR MAX TEMP:  93;

HILLSBORO      PTCLDY    88  65  46 SE10      29.81R HX  90
6HR MIN TEMP:  87; 6HR MAX TEMP:  92;

CORSICANA      CLEAR     86  63  45 SE10      29.82R HAZE
6HR MIN TEMP:  86; 6HR MAX TEMP:  92;

MEXIA          CLEAR     85  66  52 E10G17    29.81R
6HR MIN TEMP:  85; 6HR MAX TEMP:  91;

HEARNE         PTCLDY    85  68  57 CALM      29.80S
6HR MIN TEMP:  85; 6HR MAX TEMP:  90;

CAMERON        CLEAR     86  67  52 SE7       29.79S
6HR MIN TEMP:  85; 6HR MAX TEMP:  92;

TEMPLE         PTCLDY    86  66  51 SE10      29.80S
6HR MIN TEMP:  86; 6HR MAX TEMP:  91;

KILLEEN        MOCLDY    86  66  51 E12       29.80R
FORT HOOD      PTCLDY   N/A N/A N/A SE9       29.77S
                                      6HR PCP: TRACE;

GATESVILLE     PTCLDY    84  64  51 SE6       29.82S
HAMILTON       CLOUDY    85  64  49 S13       29.83S
6HR MIN TEMP:  85; 6HR MAX TEMP:  91;

LAMPASAS       CLOUDY    84  67  56 S10       29.81R
6HR MIN TEMP:  84; 6HR MAX TEMP:  91;

$$

TXZ095>097-106>112-122>126-135>138-148>153-164>167-260100-
EAST TEXAS

CITY           SKY/WX    TMP DP  RH WIND       PRES   REMARKS
PARIS          PTCLDY    82  67  60 SE7       29.85R
6HR MIN TEMP:  82; 6HR MAX TEMP:  90;

SULPHUR SPRNGS CLEAR     86  64  46 SE3       29.86R
6HR MIN TEMP:  85; 6HR MAX TEMP:  92;

MOUNT PLEASANT PTCLDY    84  67  57 E5        29.85S
6HR MIN TEMP:  84; 6HR MAX TEMP:  90;

GILMER         CLEAR     83  67  58 E3        29.84R
6HR MIN TEMP:  83; 6HR MAX TEMP:  90;

MINEOLA        PTCLDY    84  66  54 SE5       29.84R
TYLER          CLEAR     84  64  50 SE8       29.84R
6HR MIN TEMP:  84; 6HR MAX TEMP:  91;

LONGVIEW       PTCLDY    84  66  54 SE8       29.84R
6HR MIN TEMP:  84; 6HR MAX TEMP:  91;

MARSHALL       CLEAR     82  64  54 SE3       29.87R
6HR MIN TEMP:  82; 6HR MAX TEMP:  90;

ATHENS         CLEAR     84  63  48 SE5       29.82R
PALESTINE      CLEAR     86  68  55 SE6       29.84S
JACKSONVILLE   PTCLDY    83  66  56 SE3       29.87R
HENDERSON      PTCLDY    83  66  56 SE8       29.85S
6HR MIN TEMP:  83; 6HR MAX TEMP:  91;

CENTER         PTCLDY    84  71  65 CALM      29.86S
6HR MIN TEMP:  84; 6HR MAX TEMP:  92;

NACOGDOCHES    PTCLDY    81  70  69 SE3       29.85R
6HR MIN TEMP:  81; 6HR MAX TEMP:  88;

LUFKIN         PTCLDY    81  70  69 CALM      29.83R
6HR MIN TEMP:  81; 6HR MAX TEMP:  89;

$$

SUPPLEMENTAL OBSERVATIONS (NWS FORT WORTH AREA)

CITY           SKY/WX    TMP DP  RH WIND       PRES   REMARKS
DENISON DAM      N/A     84  66  54 SE3         N/A
CADDO GRASSLND   N/A     84  64  51 SE1         N/A


USA.gov is the U.S. government's official web portal to all federal, state and local government web resources and services.